Location: Sagn�
(15.2046°N, 12.7898°W)
Time: 12:42:44
(UTC+00:00)

GPS 2-17 Rocket1 - Pass Details

Date: 08 May 2021
Orbit: 571 x 658 km, 20.3° (Epoch: 14 June)

Event Time Altitude Azimuth Distance (km) Brightness Sun altitude
Rises 21:07:52 0° 266° (W) 2,942 7.4 -26.8°
Reaches altitude 10° 21:10:16 10° 270° (W) 2,041 6.5 -27.3°
Enters shadow 21:14:28 56° 317° (NW) 773 3.7 -28.2°
